Regional Weather Roundup
Issued by NWS

Home | Current Version | Previous Version | Text Only | Print | Product List | Glossary On
Versions: 1 2 3 4 5 6 7 8 9 10 11 12 13 14 15 16 17 18 19 20 21 22 23 24 25 26 27 28 29 30 31 32 33 34 35 36 37 38 39 40 41 42 43 44 45 46 47 48 49 50
000
ASUS43 KTOP 280508
RWRKS

WEATHER ROUNDUP FOR KANSAS
NATIONAL WEATHER SERVICE GOODLAND KS
1200 AM CDT TUE MAR 28 2017

NOTE:  "FAIR" INDICATES FEW OR NO CLOUDS BELOW 12,000 FEET WITH NO
SIGNIFICANT WEATHER AND/OR OBSTRUCTIONS TO VISIBILITY.

KSZ001>006-013>018-027>032-041>047-280600-
NORTHWEST KANSAS

CITY           SKY/WX    TMP DP  RH WIND       PRES   REMARKS
GOODLAND       PTCLDY    47  41  80 SE16      29.90S
HAYS             N/A     42  41  96 E7        29.98S
HILL CITY      CLEAR     41  40  96 E7        29.98R
RUSSELL        PTCLDY    41  40  96 SE7       29.98R
$$

KSZ061>065-074>080-084>089-280600-
SOUTHWEST KANSAS

CITY           SKY/WX    TMP DP  RH WIND       PRES   REMARKS
DODGE CITY     CLOUDY    49  44  83 SE12      29.94S
ELKHART          N/A     49  33  54 E15         N/A
GARDEN CITY    CLEAR     47  39  74 SE14      29.91S
GREAT BEND     PTCLDY    45  43  93 SE6       29.99  FOG
LIBERAL        CLOUDY    54  37  54 SE13      29.91S
PRATT          CLOUDY    44  42  93 E6        29.97S
$$

KSZ066>073-081>083-090>101-280600-
SOUTHEAST KANSAS

CITY           SKY/WX    TMP DP  RH WIND       PRES   REMARKS
CHANUTE        CLOUDY    53  46  77 E3        30.00S
COFFEYVILLE    CLOUDY    54  49  83 N7        29.99S
HUTCHINSON     CLOUDY    51  46  83 SE3       29.99S
MEDICINE LODGE   N/A     48  44  86 E9        29.96F
NEWTON         CLOUDY    50  47  89 CALM      30.00R
PARSONS        CLOUDY    53  47  79 N3        30.00S
WICHITA INTL   CLOUDY    52  46  80 E8        29.98F
WICHITA JABRA  CLOUDY    51  46  83 E5        29.98S
WICHITA MCCONL CLOUDY    52  45  77 E7        29.99S
WINFIELD       CLOUDY    52  46  80 E5        29.99F
$$

KSZ007>012-019>026-033>040-048>060-102>105-280600-
NORTHEAST KANSAS

CITY           SKY/WX    TMP DP  RH WIND       PRES   REMARKS
CONCORDIA      CLOUDY    48  46  93 CALM      30.01R
EMPORIA        CLOUDY    51  48  89 CALM      30.00R
LAWRENCE       CLOUDY    51  47  86 N5        30.01S
MANHATTAN      CLOUDY    52  46  80 CALM      30.01R
MARYSVILLE     MOCLDY    43  41  93 SE3       30.02R
OLATHE IND     CLOUDY    50  45  83 N7        30.00S
OLATHE EXE     CLOUDY    50  46  86 N5        30.00R
SALINA         CLOUDY    53  47  79 CALM      30.00R
TOPEKA BILLARD CLOUDY    52  45  77 CALM      30.00S
TOPEKA FORBES  CLOUDY    52  45  77 NE3       30.00S
$$



USA.gov is the U.S. government's official web portal to all federal, state and local government web resources and services.